Location: Grange Verzio
(44.5000°N, 6.9833°E)
Time: 19:09:21
(UTC+00:00)

Cosmos 2219 Rocket - Pass Details

Date: 25 September 2023
Orbit: 826 x 848 km, 71.0° (Epoch: 08 December)

Event Time Altitude Azimuth Distance (km) Brightness Sun altitude
Rises 03:34:48 0° 338° (NNW) 3,393 5.3 -19.6°
Reaches altitude 10° 03:37:22 10° 345° (NNW) 2,458 4.7 -19.2°
Maximum altitude 03:42:45 45° 58° (ENE) 1,135 3.3 -18.3°
Drops below altitude 10° 03:48:09 10° 130° (SE) 2,458 5.0 -17.4°
Sets 03:50:42 0° 137° (SE) 3,392 5.7 -16.9°
